Regional Weather Roundup
Issued by NWS

Home | Current Version | Previous Version | Text Only | Print | Product List | Glossary Off
Versions: 1 2 3 4 5 6 7 8 9 10 11 12 13 14 15 16 17 18 19 20 21 22 23 24 25 26 27 28 29 30 31 32 33 34 35 36 37 38 39 40 41 42 43 44 45 46 47 48 49 50

000
ASUS43 KOAX 240802
RWRNE

WEATHER ROUNDUP FOR NEBRASKA
NATIONAL WEATHER SERVICE OMAHA NE
200 AM CST MON NOV 24 2014

NOTES: SATELLITE DATA IS BEING USED TO AUGMENT CLOUD COVER ABOVE
       12000 FEET.
       "FAIR" INDICATES FEW OR NO CLOUDS BELOW 12,000 FEET WITH NO
       SIGNIFICANT WEATHER AND/OR OBSTRUCTIONS TO VISIBILITY.

  * THESE STATIONS DO NOT REPORT WEATHER SUCH AS RAIN...SNOW OR FOG.

NEZ001>004-019>022-054>056-240900-
NEBRASKA PANHANDLE

CITY           SKY/WX    TMP DP  RH WIND       PRES   REMARKS
SCOTTSBLUFF    CLEAR     25  16  68 NW13      29.80S WCI  14
ALLIANCE       PTCLDY    24  17  74 W15       29.74S WCI  11
CHADRON        MOCLDY    29  20  69 W15       29.77F WCI  18
KIMBALL        CLEAR     27  13  57 W22       29.79S WCI  12
SIDNEY         CLEAR     26  15  63 W15       29.78F WCI  14
$$

NEZ057>060-069>072-079>082-240900-
SOUTHWEST NEBRASKA

CITY           SKY/WX    TMP DP  RH WIND       PRES   REMARKS
NORTH PLATTE   CLEAR     29  19  66 W12       29.69F WCI  19
IMPERIAL       CLEAR     31  17  56 W18G25    29.76F WCI  19
LEXINGTON      MOCLDY    35  22  60 NW18      29.66F WCI  24
MCCOOK         MOCLDY    32  18  56 W17       29.73F WCI  21
OGALLALA       PTCLDY    32  20  61 W15G21    29.75S WCI  22
$$

NEZ005>010-023>029-035>040-094-240900-
NORTH CENTRAL NEBRASKA

CITY           SKY/WX    TMP DP  RH WIND       PRES   REMARKS
VALENTINE      PTCLDY    25  18  74 NW13G23   29.68S WCI  14
AINSWORTH      CLEAR     25  19  76 NW21G29   29.65R WCI  11
BROKEN BOW     MOCLDY    33  22  63 NW20G26   29.63F WCI  21
O`NEILL        CLOUDY    29  22  74 NW26G35   29.60F WCI  15
ORD            CLEAR     30  18  60 NW23G31   29.62S WCI  17
THEDFORD       MOCLDY    32  24  71 NW13G21   29.66S WCI  23
$$

NEZ041-046>049-061>064-073>077-083>087-240900-
SOUTH CENTRAL NEBRASKA

CITY           SKY/WX    TMP DP  RH WIND       PRES   REMARKS
AURORA         CLEAR     31  21  67 NW17      29.60S WCI  19
HASTINGS       CLOUDY    35  22  58 NW17G29   29.62S WCI  25
HEBRON         PTCLDY    32  23  70 NW5       29.63S WCI  27
HOLDREGE       MOCLDY    33  21  61 W15       29.65F WCI  22
KEARNEY *      CLOUDY    32  21  64 W10       29.66R WCI  24
YORK           CLEAR     30  23  74 NW22G30   29.59S WCI  17
$$

NEZ011>018-030>034-042>045-240900-
NORTHEAST NEBRASKA

CITY           SKY/WX    TMP DP  RH WIND       PRES   REMARKS
NORFOLK        CLOUDY    29  20  69 NW22G36   29.55S WCI  15
ALBION         CLOUDY    31  20  63 NW24G36   29.59S WCI  18
BLAIR          CLOUDY    32  21  65 NW15G25   29.51S WCI  21
COLUMBUS *     CLOUDY    30  19  64 NW20      29.58F WCI  18
FREMONT        CLOUDY    31  22  68 NW16G26   29.55S WCI  20
TEKAMAH        CLOUDY    31  21  66 NW21G35   29.54R WCI  18
WAYNE          CLOUDY    27  18  69 NW20      29.56R WCI  13
$$

NEZ050>053-065>068-078-088>093-240900-
SOUTHEAST NEBRASKA

CITY           SKY/WX    TMP DP  RH WIND       PRES   REMARKS
LINCOLN        CLOUDY    34  20  56 NW20G31   29.58R WCI  23
OMAHA EPPLEY   CLOUDY    33  21  61 NW20G28   29.53S WCI  21
BEATRICE       CLEAR     32  22  67 NW17G28   29.60R WCI  20
FALLS CITY     PTCLDY    33  22  63 NW22G31   29.55R WCI  21
NEBRASKA CITY  PTCLDY    31  19  62 NW18G28   29.54R WCI  19
PLATTSMOUTH    PTCLDY    30  19  64 NW20G32   29.53R WCI  18
$$

NEZ044-045-051>053-067-240900-
OMAHA AREA

CITY           SKY/WX    TMP DP  RH WIND       PRES   REMARKS
OMAHA EPPLEY   CLOUDY    33  21  61 NW20G28   29.53S WCI  21
BLAIR          CLOUDY    32  21  65 NW15G25   29.51S WCI  21
FREMONT        CLOUDY    31  22  68 NW16G26   29.55S WCI  20
MILLARD        PTCLDY    32  20  62 NW22G29   29.54S WCI  19
OFFUTT AFB     CLOUDY    32  21  64 NW21G28   29.53R WCI  19
PLATTSMOUTH    PTCLDY    30  19  64 NW20G32   29.53R WCI  18
WAHOO          CLOUDY    32  22  65 NW13G25   29.56R WCI  22
$$


USA.gov is the U.S. government's official web portal to all federal, state and local government web resources and services.